Preview of NWS' New Version of Forecast
This preview is not operational and should not be used for support decisions.

Regional Weather Roundup (RWR)

Issued by National Weather Service (NWS)

                            
000
ASUS43 KLSX 240107
RWRMO 

WEATHER SUMMARY FOR MISSOURI
NATIONAL WEATHER SERVICE SPRINGFIELD MO
800 PM CDT TUE APR 23 2019

NOTE: "FAIR" INDICATES FEW OR NO CLOUDS BELOW 12,000 FEET WITH NO
       SIGNIFICANT WEATHER AND/OR OBSTRUCTIONS TO VISIBILITY.
       CURRENT SKY AND/OR WEATHER CONDITIONS ARE NOT AVAILABLE FOR
       CHILLICOTHE AND FARMINGTON.

MOZ001>031-035>038-043-044-053-054-240200-
...NORTHERN AND WESTERN MISSOURI...
  
CITY           SKY/WX    TMP DP  RH WIND       PRES   REMARKS
KANSAS CTY INT DRIZZLE   55  48  77 E5        30.00F                  
KANSAS C DTWN  LGT RAIN  56  49  77 NE3       29.99F                  
LEE'S SUMMIT   LGT RAIN  53  50  89 NE3       30.00F                  
ST JOSEPH      CLOUDY    55  48  77 E6        30.01S                  
CHILLICOTHE      N/A     56  47  71 CALM      30.02F                  
KIRKSVILLE     CLOUDY    53  48  83 NE6       30.01F                  
     
$$
MOZ066>068-077>081-088>096-101>105-240200-
...SOUTHWEST MISSOURI...
  
CITY           SKY/WX    TMP DP  RH WIND       PRES   REMARKS
SPRINGFIELD    CLOUDY    61  55  81 NE9       29.95F                  
JOPLIN         CLOUDY    59  57  93 NE7       29.96S                  
BRANSON        CLOUDY    68  61  77 N7        29.95S                  
               
$$
MOZ032>034-039>042-045>050-055>058-069>072-240200-
...CENTRAL MISSOURI...  
  
CITY           SKY/WX    TMP DP  RH WIND       PRES   REMARKS
COLUMBIA       CLOUDY    57  54  89 CALM      30.00F                  
JEFFERSON CITY CLOUDY    58  53  84 CALM      30.00S                  
ROLLA          CLOUDY    58  53  84 NE5       30.00R                  
SEDALIA        LGT RAIN  53  53 100 CALM      30.00F                  
WHITEMAN AFB   LGT RAIN  54  54 100 CALM      29.96F                  
WARRENSBURG    LGT RAIN  54  50  87 CALM      30.01R                  
OSAGE BEACH    LGT RAIN  57  55  93 NE3       30.01R                  
               
$$
MOZ051-052-059>065-240200-
...EAST CENTRAL MISSOURI...
  
CITY           SKY/WX    TMP DP  RH WIND       PRES   REMARKS
ST LOUIS INTL  CLOUDY    60  54  80 CALM      30.02S                  
SPIRIT OF STL  MOCLDY    59  55  87 E5        30.00F                  
ST CHARLES     CLOUDY    59  55  87 E6        30.01R                  
                   
$$
MOZ072>076-082>087-097>100-106>115-240200-
...SOUTH CENTRAL AND SOUTHEAST MISSOURI...
  
CITY           SKY/WX    TMP DP  RH WIND       PRES   REMARKS
CAPE GIRARDEAU FAIR      69  59  70 S8        29.95S                  
FARMINGTON     PTCLDY    62  56  80 NE9       29.99F                  
POPLAR BLUFF   FAIR      72  59  63 S9        29.94S                  
WEST PLAINS    CLOUDY    71  59  65 N6        29.96R                  
                                       
$$